Theta_e
298 298 297 297 297 297 297 297 297 297 297 297 297 297 297 298 298 297 300 303 304 304 304 303 304 304 305 306 306 306 305 301 301 306 308 310 314 314 314 314 314 313 313 312 312 312 312 313 313 314 314 315 315 315 314 313 312 311 311 311 309 308 307 304 301 300 301 302 303 304 304 305 306 307 307 308 308 308 308 308 309 308 308 308 306
298 297 297 297 297 297 297 297 297 296 296 296 296 297 297 297 298 297 298 301 303 303 303 303 303 304 305 306 306 306 305 301 301 306 309 311 314 314 313 314 315 314 313 313 312 312 312 313 312 313 313 314 314 314 313 312 311 311 310 310 309 307 306 303 301 301 303 303 304 305 305 306 307 307 308 308 308 308 309 309 309 308 307 308 306
298 297 297 297 297 297 296 296 296 296 296 296 295 296 296 297 297 298 297 299 302 303 303 303 303 304 305 305 305 306 305 302 301 305 310 310 313 314 313 314 315 315 314 314 313 313 313 313 312 312 312 312 312 312 311 311 311 310 310 309 307 305 303 301 301 303 304 304 305 305 306 307 307 307 308 308 308 309 309 310 309 307 306 307 306
298 297 297 297 297 296 296 296 296 296 295 295 295 295 296 296 297 298 298 298 301 302 303 303 303 303 304 305 305 305 305 303 301 304 310 311 312 314 314 313 313 314 314 314 314 313 313 312 313 312 311 312 311 311 311 311 310 310 308 306 304 302 300 300 302 303 304 305 306 306 307 308 308 308 308 308 309 309 310 310 309 307 306 307 306
297 297 297 297 296 296 296 296 295 295 295 295 295 295 295 296 296 297 298 298 300 301 302 302 302 303 304 305 305 304 304 303 301 302 307 311 312 313 314 313 312 312 313 314 314 314 313 313 313 312 312 312 311 311 310 310 308 307 304 303 303 303 302 303 304 306 307 307 307 308 308 309 309 309 309 310 310 310 310 310 309 307 307 308 308
297 297 297 296 296 296 295 295 295 295 295 295 295 295 295 295 296 297 297 298 299 300 301 302 302 303 304 304 305 304 303 303 301 301 305 310 312 312 314 314 313 312 312 312 313 313 313 313 313 313 312 312 311 310 308 307 305 304 304 304 305 306 306 307 308 308 309 309 309 309 310 310 310 309 309 310 310 310 311 311 309 308 309 309 308
297 297 296 296 296 295 295 295 295 295 295 295 295 294 294 295 296 297 297 298 298 299 301 301 302 303 304 304 305 305 304 303 302 301 302 307 311 312 313 314 314 313 312 311 311 312 312 313 313 312 312 312 311 309 307 306 306 306 307 307 308 309 310 310 310 310 310 310 310 310 310 311 311 310 310 310 310 310 311 312 311 310 309 309 308
297 297 296 296 296 295 295 295 295 295 295 295 294 294 294 294 295 296 297 298 298 299 301 301 302 303 304 305 305 306 305 304 303 302 301 304 309 311 312 313 314 314 313 312 311 311 311 311 311 311 311 311 310 309 308 307 308 308 308 308 309 310 311 310 310 310 310 311 311 311 311 311 311 310 311 311 310 310 310 311 310 310 309 309 308
297 297 296 296 295 295 295 295 294 295 294 294 294 294 294 294 295 296 297 297 298 298 300 301 302 303 303 304 305 306 306 305 304 303 301 302 306 309 311 312 313 314 314 314 312 311 310 310 310 310 310 309 309 309 308 308 308 309 309 310 311 311 311 311 311 311 311 311 311 311 311 311 311 311 311 311 311 312 312 311 310 310 311 310 308
297 296 296 295 295 295 295 294 294 295 294 294 294 294 294 294 295 296 297 297 298 298 300 301 302 302 303 304 305 306 306 305 304 304 302 301 303 307 309 311 312 313 314 314 313 312 311 310 310 310 310 309 309 309 308 308 309 309 310 310 311 312 312 312 311 312 312 312 312 312 312 312 312 312 311 311 312 312 312 311 311 310 311 311 311
296 296 296 295 295 294 294 294 294 294 294 294 294 294 294 294 295 296 297 297 298 298 299 300 301 301 302 304 305 305 305 305 305 304 303 301 301 304 307 309 311 312 313 313 313 313 312 310 309 309 309 309 309 309 309 310 310 309 310 311 311 311 312 312 312 312 312 312 312 312 313 312 312 312 312 312 311 311 311 311 310 311 310 310 311
296 296 295 295 295 294 294 294 294 294 294 294 294 294 294 294 295 296 296 297 298 298 298 300 300 301 302 303 304 305 305 305 305 304 304 302 301 302 304 306 308 309 311 312 313 314 313 312 312 312 311 310 309 310 310 310 311 311 311 310 310 310 310 311 312 312 312 312 312 311 312 311 311 311 311 312 312 311 312 311 310 311 310 309 310
296 296 295 295 295 295 294 294 294 294 294 294 294 294 294 294 294 295 296 296 297 298 298 299 300 301 302 302 304 304 304 305 305 304 304 303 302 301 303 304 306 306 307 309 311 312 313 313 313 313 313 313 312 311 311 312 312 312 311 311 310 310 310 310 310 310 310 310 309 308 307 307 307 307 307 309 312 312 312 312 311 311 311 309 309
296 296 295 295 295 295 294 294 294 294 294 294 294 294 294 294 294 294 295 296 297 298 298 299 299 300 301 302 302 303 304 304 305 304 304 304 303 302 302 303 304 305 306 306 307 309 311 312 312 312 312 313 313 313 313 312 311 310 310 310 310 310 309 309 308 308 308 307 305 304 303 304 304 304 303 306 311 312 312 312 311 311 311 309 308
296 295 295 295 295 295 294 294 294 294 294 294 294 294 294 294 294 294 294 295 296 297 298 299 299 300 300 301 302 303 303 304 305 304 304 304 304 303 303 303 303 304 305 306 306 307 308 309 311 312 312 311 312 312 313 312 310 310 310 310 309 308 308 308 309 308 306 303 302 302 304 305 306 306 305 306 309 310 311 311 311 312 311 310 309
296 295 295 295 295 295 294 295 294 294 294 294 294 294 293 293 293 293 294 294 295 296 297 298 299 299 300 300 301 302 302 303 304 304 304 304 304 303 303 303 303 303 304 305 306 306 307 307 308 310 311 311 311 311 311 311 311 310 310 309 308 308 309 309 309 306 303 301 301 303 304 305 305 306 307 307 309 310 311 311 310 311 311 310 309
296 295 295 295 295 295 294 295 294 294 294 294 294 294 293 293 293 293 293 293 294 295 296 297 298 299 299 299 300 301 301 302 303 304 304 304 304 304 303 303 303 303 303 304 304 305 306 307 307 308 309 310 311 310 310 311 311 311 310 309 309 310 310 309 307 303 302 302 303 305 305 304 304 303 304 305 306 308 308 307 308 309 309 309 309
296 295 295 295 295 295 294 295 295 294 294 294 294 294 293 293 293 293 293 293 293 294 295 296 297 298 298 299 299 300 300 301 302 303 304 304 304 304 304 303 303 303 303 303 304 304 304 306 307 307 308 309 310 311 311 311 311 310 310 309 309 309 310 309 307 305 305 305 305 305 305 305 303 301 300 300 299 300 300 300 304 308 307 306 307
296 295 295 294 295 295 295 295 295 294 294 294 294 294 293 293 293 293 292 292 293 293 294 294 295 296 297 297 298 298 299 300 301 302 302 303 304 304 304 304 304 303 303 303 303 303 303 304 305 307 307 308 309 310 311 312 311 311 310 309 309 309 309 308 307 306 306 306 306 307 306 306 304 301 300 299 296 295 294 295 301 307 309 306 306
295 295 294 294 295 295 295 295 295 294 294 294 294 294 293 293 293 293 292 292 292 292 293 293 293 294 295 296 296 297 298 299 299 300 301 302 303 303 304 304 304 304 304 304 303 303 303 303 303 305 306 307 308 309 310 311 311 311 310 310 310 310 309 307 305 304 304 304 305 306 307 307 305 303 302 301 298 297 297 296 299 305 308 309 307
295 295 294 294 295 295 295 295 295 294 294 294 294 293 293 293 293 293 292 292 292 292 292 292 292 292 293 294 295 295 296 297 298 299 300 301 301 302 303 303 304 303 303 304 304 303 303 303 303 303 304 305 307 308 309 309 309 309 310 310 310 309 308 308 306 304 304 304 304 305 305 306 305 304 303 302 302 303 303 302 303 304 306 307 308
296 295 294 294 295 295 294 295 294 294 294 294 294 293 293 293 293 292 292 292 292 292 292 292 291 292 292 292 293 294 295 296 297 298 299 300 300 301 302 303 303 303 303 303 304 303 303 303 303 303 303 304 305 306 308 309 309 310 309 309 309 309 309 308 307 305 304 305 305 305 304 304 304 304 303 302 303 305 306 306 307 307 306 307 308
296 295 294 294 295 294 294 295 294 294 294 294 294 293 293 293 293 293 292 292 292 292 292 291 291 291 291 291 291 292 293 294 296 296 297 298 299 300 301 302 302 303 303 303 303 303 303 302 302 302 303 303 304 304 305 307 308 309 309 309 309 309 309 308 306 305 305 306 305 305 305 304 303 303 303 302 302 305 306 307 307 308 308 308 309
297 296 294 294 294 294 294 294 294 294 294 294 294 293 293 293 293 293 292 292 292 292 291 291 291 291 291 290 290 290 291 292 294 295 296 297 298 299 300 301 302 302 303 302 302 302 302 302 302 302 302 303 303 303 304 304 305 306 307 308 308 308 307 307 306 305 306 306 305 305 305 305 304 303 304 302 302 304 306 306 307 308 309 308 309
297 296 294 294 294 294 294 294 294 294 294 294 294 293 293 293 293 292 292 292 292 292 291 291 291 291 290 290 290 290 290 290 291 293 294 296 297 298 299 300 301 301 302 302 302 302 302 302 302 302 302 303 303 303 303 303 304 304 304 305 305 305 305 305 305 306 306 305 305 305 305 304 303 304 304 303 301 303 306 307 307 308 309 309 309
298 296 294 294 294 294 294 294 294 294 294 294 294 293 293 293 293 292 292 292 292 292 291 291 291 291 290 290 289 289 289 290 290 290 292 293 295 296 298 299 299 300 300 301 301 301 302 302 303 303 303 303 303 303 303 303 303 303 303 304 304 304 304 304 304 305 305 305 305 305 304 304 303 304 305 303 301 301 304 307 307 307 308 308 308
298 297 295 294 294 293 293 294 294 294 294 294 293 293 293 293 293 292 292 292 292 291 291 291 291 291 290 290 289 289 289 290 290 290 290 291 292 293 295 297 298 298 299 299 299 300 300 301 302 302 302 303 303 303 303 303 303 303 303 303 303 303 303 304 304 304 304 304 304 304 303 303 303 304 304 303 301 300 302 305 307 307 306 306 306
298 297 295 294 293 293 293 294 294 293 294 293 293 293 293 293 293 292 292 292 292 291 291 291 291 291 290 290 289 289 290 289 290 289 289 289 289 290 292 294 295 296 297 298 298 297 298 299 299 300 301 301 302 302 302 303 303 303 303 303 303 303 303 303 303 303 303 303 303 303 303 303 303 303 304 303 301 300 301 304 306 307 307 305 304
298 298 296 295 294 293 293 294 293 293 294 294 294 294 293 293 293 293 292 292 292 291 291 291 291 291 291 290 290 290 289 289 289 289 289 289 289 289 290 291 292 293 295 296 295 295 296 298 298 298 299 300 300 301 301 301 301 302 302 302 303 303 303 302 302 302 303 303 303 303 303 303 303 303 303 303 302 301 301 302 303 305 306 306 304
298 298 297 296 294 294 293 293 293 293 293 293 293 294 293 293 293 293 292 292 292 291 291 291 291 291 291 290 290 290 289 289 288 288 288 289 289 289 289 290 290 291 292 293 292 293 294 296 296 296 296 297 297 298 297 298 299 299 300 300 301 302 303 303 302 301 302 303 303 303 303 303 302 302 303 303 303 302 301 301 302 302 304 305 305
298 298 298 297 295 294 294 293 293 293 293 293 293 293 293 293 293 293 292 292 292 292 291 291 291 291 291 290 290 290 289 289 288 288 288 288 289 289 289 289 290 290 291 291 291 291 292 292 292 292 293 293 293 293 293 294 294 295 296 297 299 300 301 302 302 301 301 302 302 303 303 302 302 302 302 303 303 303 302 302 302 302 302 303 303
297 298 299 298 296 295 295 294 293 293 293 293 293 293 293 293 293 293 293 292 292 292 291 291 291 291 291 290 290 290 289 289 289 289 289 289 289 289 289 289 290 290 291 290 290 290 290 290 290 290 290 290 290 290 290 290 291 291 292 293 294 296 298 300 301 301 299 299 300 302 303 302 302 302 302 302 302 302 302 302 302 302 302 302 302
297 298 299 298 297 296 296 294 293 293 293 293 293 293 293 293 293 293 293 292 292 292 291 291 291 291 290 290 290 290 289 289 289 289 289 289 289 289 289 289 290 290 290 290 290 289 289 288 288 288 288 288 288 288 289 289 289 289 289 289 290 291 294 296 299 299 299 299 298 300 302 302 302 302 302 302 302 302 302 302 302 302 302 302 302
297 298 298 298 297 297 296 295 294 294 294 293 293 293 293 293 293 293 292 292 292 292 292 291 291 291 291 290 290 290 289 289 289 289 289 289 289 290 290 289 289 290 290 290 289 289 288 288 288 287 287 287 288 288 288 288 288 288 288 288 288 288 289 292 295 297 298 299 298 298 299 302 303 302 302 302 302 302 301 301 302 302 302 302 302
297 297 297 297 298 298 298 297 296 295 294 294 293 294 293 293 292 293 292 292 292 292 292 291 291 291 291 290 290 290 289 289 289 289 289 289 289 290 289 289 289 289 289 289 289 288 288 287 287 287 287 287 287 287 287 287 287 287 287 287 287 288 288 289 290 292 294 295 297 297 297 299 301 301 301 301 302 302 302 302 301 301 301 302 302
297 298 297 297 298 299 299 298 297 296 294 294 293 293 293 293 293 293 292 292 292 292 292 291 291 291 291 291 290 290 290 289 289 289 289 289 290 289 289 288 288 289 289 288 288 287 287 287 286 286 286 286 286 286 286 286 286 287 287 287 287 287 288 288 288 289 290 291 293 295 296 297 298 299 299 301 302 301 301 302 302 301 301 301 301
298 298 297 297 299 300 299 299 298 296 294 293 293 293 293 293 293 292 292 292 292 291 291 291 291 291 291 291 291 290 290 290 289 289 289 289 290 289 289 288 288 288 288 288 288 287 287 287 286 286 286 286 286 286 286 286 286 286 286 286 286 286 287 287 287 288 288 289 289 290 293 295 296 296 296 299 300 300 301 301 301 301 302 302 301
298 298 297 297 298 300 300 299 298 296 294 293 293 293 293 293 293 292 292 292 292 291 291 291 291 291 291 291 291 291 290 290 290 290 290 289 289 289 289 289 288 288 287 287 287 287 287 286 286 286 286 286 286 286 286 286 286 286 286 286 286 286 286 287 287 287 288 288 288 288 289 291 293 294 294 295 297 298 300 301 301 301 301 302 301
297 297 296 296 297 299 300 300 298 296 295 294 294 293 293 293 293 292 292 292 292 291 291 291 291 291 291 291 291 291 291 291 290 290 290 289 289 289 289 288 288 288 287 287 287 287 286 286 286 286 286 286 286 286 286 286 286 285 285 285 285 286 286 286 286 286 287 287 287 288 288 288 289 291 292 294 294 295 298 300 301 301 301 301 301
296 296 296 296 296 298 299 299 298 297 296 295 294 294 293 292 293 293 292 292 292 292 291 291 291 291 291 291 291 291 291 290 290 290 290 290 289 289 289 289 288 288 287 287 287 287 286 286 286 286 286 286 286 286 285 286 285 285 285 285 285 285 285 285 285 286 286 286 287 287 287 288 288 288 289 291 292 293 295 297 299 300 300 301 301
297 297 296 296 296 297 298 298 297 298 297 296 295 294 293 292 293 293 292 292 292 292 292 291 291 291 291 291 291 291 291 290 290 290 290 290 289 289 289 289 288 288 288 287 287 287 287 286 286 286 286 286 286 285 285 285 285 285 285 285 285 285 285 285 285 285 286 286 286 286 287 287 287 287 287 288 290 291 292 294 296 298 299 300 300
298 298 297 296 296 297 297 297 297 298 297 296 295 294 293 293 293 293 292 292 292 292 292 291 291 291 291 291 291 291 291 290 290 290 290 290 289 289 289 289 289 288 288 288 288 287 287 287 286 286 286 286 286 286 285 285 285 285 285 285 285 285 285 285 285 285 285 285 286 286 286 287 287 286 286 287 288 288 289 291 293 295 297 298 299
298 298 297 296 296 297 296 297 297 298 297 297 296 294 293 293 293 293 293 292 292 292 292 291 291 291 291 291 291 291 291 290 290 290 290 290 289 289 289 289 289 288 288 288 288 288 287 287 286 286 286 286 286 286 285 285 285 285 285 285 285 285 285 284 284 285 285 285 285 285 285 286 286 286 286 286 286 287 287 288 290 292 294 296 297
298 297 296 296 297 297 297 297 297 297 297 296 296 295 293 293 293 293 292 292 292 292 292 291 291 291 291 291 291 291 291 291 290 290 290 290 290 289 289 289 289 288 288 288 288 288 288 287 287 286 286 286 286 286 285 285 285 285 285 285 284 284 284 284 284 284 284 285 285 285 285 285 285 285 285 286 285 286 286 287 288 289 291 293 295
297 297 296 296 297 297 297 297 297 297 296 296 295 294 294 293 293 293 292 292 292 292 292 291 292 291 291 291 291 291 291 290 290 290 290 290 290 289 289 289 289 288 288 288 288 288 288 287 287 287 286 286 286 286 285 285 285 285 284 284 285 284 284 284 284 284 284 284 284 284 284 285 285 284 285 285 285 285 285 286 286 287 289 291 292
297 297 297 296 297 298 298 297 297 296 296 296 295 295 294 293 293 293 292 292 292 292 291 291 291 291 291 291 291 290 290 290 290 290 290 290 290 290 289 289 289 288 288 288 288 288 288 287 287 287 286 286 286 286 285 285 285 284 284 284 284 284 284 284 284 284 284 284 284 284 284 284 284 284 284 284 284 284 285 285 285 286 288 289 290
298 297 297 296 296 297 298 298 297 297 296 295 295 295 294 293 293 293 292 292 292 292 291 291 291 291 291 291 290 290 290 290 290 290 290 290 290 290 289 289 289 288 288 288 288 288 288 287 287 287 287 286 286 286 285 285 285 284 284 284 284 284 284 284 284 284 284 283 284 284 284 284 283 284 284 284 284 284 284 284 285 285 286 288 289
299 298 297 297 296 297 297 297 297 297 297 296 295 295 294 293 293 293 292 292 292 292 291 291 291 291 291 291 290 290 290 290 290 290 290 290 290 290 289 289 289 288 288 288 288 288 288 287 287 287 287 286 286 286 285 285 285 284 284 284 284 284 284 284 284 284 283 283 284 284 283 283 283 283 284 284 284 284 284 284 284 285 285 286 288
301 300 298 297 297 296 296 297 297 297 296 296 296 296 295 294 293 293 292 292 292 292 291 291 291 291 291 290 290 290 290 290 290 290 290 290 290 290 289 289 289 289 288 288 288 288 288 288 287 287 287 286 286 285 285 285 284 284 284 284 284 283 283 283 283 283 283 283 284 283 283 283 283 283 283 283 284 284 284 284 284 284 285 285 286
303 301 300 298 297 297 296 296 296 296 296 297 297 297 296 295 294 293 292 292 292 292 291 291 291 291 291 290 290 290 290 290 290 290 290 290 290 290 290 289 289 289 288 288 288 288 288 288 287 287 286 286 286 285 285 285 284 284 284 284 283 283 283 283 283 283 283 283 283 283 283 283 283 283 283 283 283 283 284 284 284 284 284 284 285
305 303 301 300 299 298 297 297 297 297 297 297 296 296 296 295 294 293 292 292 292 292 291 291 291 291 291 290 290 290 289 289 289 289 289 290 290 290 289 289 289 289 289 288 288 288 288 288 287 287 286 286 285 285 285 284 284 284 284 283 283 283 283 283 283 283 283 283 283 283 283 282 282 282 283 283 283 283 283 283 283 283 283 283 284
Wind_Speed
20 20 19 20 21 21 22 22 22 23 24 25 27 27 27 27 28 30 25 18 16 17 18 18 18 16 18 22 28 32 35 36 36 31 25 29 37 37 34 35 36 37 37 38 39 38 34 32 30 28 25 22 20 19 18 17 18 21 22 21 22 21 20 28 33 28 24 23 22 22 18 13 11 10 10 10 11 11 10 10 13 11 8 12 17
19 19 19 19 20 20 21 21 22 23 24 25 26 26 27 27 27 29 28 23 18 17 18 18 17 17 19 24 28 31 34 35 36 34 28 29 36 37 35 33 33 35 37 38 39 37 35 34 33 31 30 29 25 22 22 22 22 23 23 21 22 20 18 24 30 28 25 23 20 16 13 10 10 9 8 8 7 8 9 9 9 10 9 10 15
17 18 18 18 19 20 20 21 21 22 24 25 26 27 27 27 27 28 29 26 21 17 17 17 18 17 21 27 29 30 34 34 34 34 31 30 34 35 34 34 33 33 34 35 36 36 34 33 33 34 35 33 30 26 24 23 23 22 21 20 20 21 22 25 27 26 24 21 16 11 9 9 9 8 7 8 8 7 8 8 10 12 13 12 13
16 17 17 17 18 19 19 20 21 22 23 24 26 27 27 26 27 27 28 28 23 17 15 17 18 17 20 27 30 29 33 34 33 33 32 32 33 33 32 33 34 33 31 31 32 33 32 30 28 30 32 31 29 27 24 23 21 20 21 21 22 23 25 24 21 19 18 16 13 9 8 8 8 6 5 6 8 7 7 9 11 12 13 13 12
15 15 16 17 17 18 19 19 20 21 22 24 25 26 27 26 26 26 27 28 24 18 15 16 17 17 18 24 29 31 32 33 33 32 32 33 34 32 30 31 33 33 32 31 31 30 29 28 26 26 27 26 26 25 24 23 21 21 24 26 24 22 20 18 16 15 14 13 12 10 8 8 8 6 5 5 5 7 8 9 10 11 12 12 11
14 14 15 16 16 18 19 19 20 20 21 23 24 25 26 26 26 26 26 27 26 21 17 16 17 18 16 20 27 31 31 32 33 32 30 31 33 32 30 29 31 33 32 31 31 30 29 27 26 25 24 23 24 25 25 25 24 24 26 28 27 22 18 16 15 14 14 13 12 10 9 8 7 7 6 6 5 6 5 7 9 11 11 11 11
13 13 14 15 16 17 19 19 19 20 21 22 23 25 26 26 26 26 26 26 27 24 19 17 18 17 16 20 26 29 30 31 32 32 29 29 31 32 30 28 29 31 32 31 30 30 29 28 26 26 24 22 22 23 25 25 25 24 25 26 25 20 16 15 15 14 14 12 11 11 9 7 7 7 7 6 7 7 5 6 8 9 11 12 12
13 13 13 14 16 17 18 19 19 20 21 22 23 24 25 26 26 26 26 26 27 26 20 16 17 17 17 21 25 28 30 31 32 32 29 27 29 31 31 29 28 29 31 31 30 29 28 28 27 26 25 23 22 22 22 22 23 23 21 19 17 16 15 15 14 14 13 12 12 12 11 9 9 9 8 7 8 8 8 8 8 8 9 12 14
12 12 12 13 15 17 18 19 19 20 21 22 23 24 25 25 26 25 26 26 27 26 20 15 17 17 17 21 24 26 29 31 31 31 28 26 27 29 30 30 29 28 29 30 30 29 28 27 26 24 23 23 23 22 20 19 20 19 17 15 13 14 14 15 14 14 13 13 12 12 12 11 11 10 10 9 8 8 8 8 9 8 6 7 13
12 11 12 13 15 16 17 19 19 20 21 22 23 24 24 25 25 25 25 25 26 27 22 16 16 17 17 21 25 26 27 28 28 28 26 24 26 28 29 29 29 28 27 26 27 27 27 26 25 23 22 22 22 22 20 18 17 16 16 15 14 14 14 15 15 14 14 13 13 13 12 12 11 10 9 9 8 8 8 8 8 9 7 5 9
12 11 12 13 14 16 17 18 19 20 22 22 23 24 24 24 25 24 25 25 26 27 24 19 17 16 17 20 24 25 25 25 25 25 25 22 23 27 27 27 29 29 27 25 23 23 23 23 23 22 21 21 20 20 19 18 16 15 15 15 14 14 15 15 15 15 14 14 13 13 13 12 11 10 9 8 7 7 8 7 7 9 9 7 8
11 11 12 13 14 15 17 17 18 20 21 22 23 23 24 24 25 24 24 25 25 26 25 22 18 16 16 19 23 24 24 23 23 24 24 21 22 26 27 26 28 29 29 27 24 22 21 20 19 19 19 18 17 17 17 17 15 14 13 14 14 15 17 17 16 16 15 15 14 13 13 11 10 9 8 6 5 5 5 6 8 8 9 9 9
11 11 11 12 13 15 16 17 18 19 21 22 22 23 24 24 25 24 24 24 24 24 25 24 21 19 18 19 23 24 23 23 22 22 23 21 21 25 27 26 27 28 29 28 26 24 22 21 20 18 17 15 14 13 13 14 15 14 13 14 15 16 16 17 17 16 15 14 13 12 12 11 10 8 6 4 4 6 5 6 7 8 8 8 9
11 11 11 12 13 15 16 16 17 19 20 21 22 23 24 25 25 25 24 23 23 23 24 25 24 23 21 20 22 23 23 22 21 20 21 20 22 25 26 26 26 26 27 28 27 26 24 24 23 21 19 17 14 13 13 15 18 18 16 17 18 17 17 17 17 17 16 14 14 14 13 12 11 8 5 3 4 6 6 6 7 7 7 8 10
10 10 11 11 13 14 15 15 17 18 19 20 21 22 24 25 25 25 24 23 22 22 23 24 24 23 22 22 23 23 23 21 20 19 19 19 22 26 26 26 26 26 26 27 27 27 25 25 24 23 22 20 16 14 13 16 20 19 17 17 18 18 18 18 18 18 18 16 15 15 16 16 14 12 7 4 4 5 6 6 6 7 7 9 11
10 10 11 11 13 14 14 15 16 17 18 19 20 22 23 24 24 25 25 23 22 22 22 22 23 23 22 22 23 24 23 22 20 19 18 18 21 26 27 26 27 27 26 26 26 26 26 24 23 21 20 20 17 14 13 14 16 17 17 18 18 18 18 18 19 19 19 18 17 17 18 18 16 15 11 7 5 6 6 6 7 8 6 6 8
9 10 11 11 12 13 13 14 15 16 17 18 20 21 23 23 23 24 24 23 23 23 22 21 21 22 22 23 24 25 24 23 22 21 19 18 20 25 26 26 27 27 27 26 26 26 26 24 22 20 18 17 15 13 12 13 14 15 16 16 16 16 16 15 17 18 19 19 18 17 17 17 16 16 14 11 7 5 5 5 8 9 7 6 7
9 10 11 11 12 13 13 13 14 15 16 17 19 21 22 22 22 23 24 24 23 23 22 21 20 21 22 23 24 25 25 25 24 23 22 20 20 22 24 25 26 27 28 28 27 27 26 25 23 22 19 16 13 10 9 10 12 14 15 15 15 14 14 13 14 16 16 17 17 17 17 19 20 20 19 16 12 9 7 7 8 9 8 8 7
9 10 11 11 12 12 13 13 14 15 15 17 18 20 21 21 21 23 23 23 23 22 22 21 21 21 22 22 23 24 25 25 25 25 25 23 22 22 22 23 25 26 26 27 27 27 27 26 25 24 22 18 14 11 9 9 10 12 13 14 14 12 14 15 14 14 15 14 15 16 18 21 23 24 23 22 18 14 11 10 10 11 11 10 9
10 10 11 11 11 12 13 13 14 15 15 17 18 19 20 20 20 22 22 21 22 22 22 22 22 23 23 23 23 24 25 25 26 26 26 26 25 24 23 22 24 24 24 24 24 25 25 26 25 24 23 21 18 14 10 9 10 11 12 13 13 11 12 14 14 15 16 16 16 17 17 20 23 24 25 24 21 18 16 14 14 14 13 12 12
10 11 11 11 12 12 13 13 14 15 15 16 17 18 18 19 19 20 21 21 21 21 22 23 24 24 24 24 24 25 26 26 26 26 27 27 27 26 25 24 24 23 22 22 23 23 23 24 24 24 23 23 21 18 14 11 10 11 12 13 12 10 11 12 12 13 15 17 19 20 18 19 22 24 24 24 22 19 18 17 16 15 13 13 12
11 11 11 11 12 12 12 13 14 15 15 16 16 16 17 17 18 19 20 20 20 21 23 23 24 25 25 26 26 27 27 26 26 26 27 27 27 27 26 25 24 23 22 22 22 22 21 22 22 22 22 22 21 20 18 15 13 13 13 13 11 8 8 9 10 11 13 15 18 20 20 20 21 22 22 23 22 18 15 15 15 13 12 12 11
11 11 12 12 12 12 12 13 14 15 15 15 15 15 16 16 16 17 18 19 20 21 22 23 23 25 26 26 27 27 27 27 26 26 26 26 26 26 25 24 24 24 24 23 22 21 19 19 19 19 19 19 20 19 18 18 17 16 14 12 10 7 6 8 9 10 12 14 16 18 20 20 21 20 20 22 22 17 13 14 16 15 14 15 13
11 12 12 12 12 12 13 13 14 14 14 14 14 14 14 14 15 15 16 17 19 20 22 22 23 24 25 26 26 26 26 26 26 25 25 25 24 24 24 23 24 25 25 23 22 20 18 17 16 16 16 17 17 18 17 17 17 16 14 12 10 9 8 9 9 10 11 13 16 18 18 19 19 18 18 20 22 18 14 16 20 18 17 17 15
12 12 13 13 12 12 13 13 13 13 13 14 13 13 13 14 14 15 16 17 18 20 20 21 22 24 25 25 25 25 25 25 24 24 23 23 23 22 21 21 22 24 24 23 22 21 19 17 15 14 13 13 14 15 15 15 15 15 14 13 13 13 13 12 11 11 11 13 15 16 17 18 17 16 16 18 20 19 17 17 18 17 16 16 14
12 13 13 14 13 13 13 13 13 13 13 13 12 12 13 13 14 15 16 17 18 19 19 19 21 22 24 24 24 24 24 24 23 23 22 22 22 21 20 19 20 21 22 21 21 21 20 19 18 16 15 14 14 14 14 14 14 14 14 15 15 15 15 14 14 13 13 13 14 15 16 16 15 15 15 16 16 17 18 17 16 16 15 14 13
13 13 14 14 14 13 13 13 13 12 12 12 12 12 12 12 13 14 15 16 17 18 18 19 20 21 22 23 23 23 23 23 23 22 22 22 22 20 18 17 17 18 18 19 20 22 22 21 21 20 20 20 19 19 18 17 16 15 15 15 16 15 15 15 15 14 14 14 14 13 14 15 14 14 14 15 15 16 17 17 16 15 15 16 16
14 14 15 15 15 14 13 13 13 12 11 11 11 11 12 12 12 13 14 15 16 17 18 19 19 20 20 20 21 22 22 23 23 23 22 23 22 20 18 15 14 15 15 17 20 23 23 21 20 20 20 20 21 22 22 23 22 20 17 16 15 14 14 15 15 15 14 13 13 13 14 15 15 14 13 13 14 15 17 17 17 14 14 16 20
15 15 16 16 16 15 14 13 13 12 11 11 10 10 11 12 12 13 14 14 15 16 16 17 18 19 19 20 21 21 22 22 23 22 22 22 21 20 18 16 15 15 15 17 21 24 22 19 18 19 19 20 22 22 24 25 25 25 23 21 19 16 14 13 16 18 16 14 13 14 15 16 16 16 14 12 13 14 16 17 18 16 13 13 17
16 16 16 17 16 16 15 14 13 12 11 10 9 9 10 11 11 12 13 13 14 14 15 16 17 18 18 20 21 21 21 22 22 21 21 20 20 20 18 16 16 16 17 19 23 24 22 20 21 22 22 23 24 25 26 27 27 27 27 27 25 23 19 15 14 16 17 16 15 15 16 17 17 17 15 12 11 12 14 16 17 18 15 13 14
17 17 17 18 17 17 16 15 14 13 12 11 9 9 9 10 10 11 12 12 13 13 14 16 17 17 18 20 21 21 21 21 21 20 19 19 18 18 18 17 16 17 19 22 24 24 23 24 24 25 25 25 26 26 27 28 27 28 29 28 27 27 26 22 18 14 14 16 16 15 16 17 17 17 17 15 13 11 11 13 15 17 17 15 15
18 18 18 19 19 17 16 15 15 14 12 11 10 9 8 8 9 10 11 11 12 12 14 15 16 17 18 20 20 20 20 20 20 19 18 17 16 17 18 18 18 18 21 23 25 26 25 26 25 25 25 26 26 26 26 27 27 27 28 29 28 28 27 27 26 20 16 15 14 14 16 17 16 17 18 17 16 14 12 11 12 14 14 15 17
17 18 19 20 20 18 17 16 15 14 13 11 10 9 8 7 8 9 10 10 10 11 12 14 15 16 17 19 19 19 18 19 19 18 17 15 14 15 18 20 19 20 22 24 25 26 26 26 26 25 25 25 25 25 25 25 26 26 27 28 29 28 27 27 27 26 22 18 14 13 14 15 15 16 16 17 17 17 15 13 12 11 11 12 15
18 18 19 20 20 19 17 16 15 14 13 12 11 10 9 8 7 7 8 9 9 10 11 12 13 14 15 17 17 18 18 18 18 17 15 14 13 16 20 22 21 21 23 24 25 25 25 25 25 25 24 24 24 24 24 24 24 25 26 27 27 27 27 26 25 26 26 23 17 14 13 14 13 14 15 16 16 17 17 17 15 13 11 11 12
19 19 19 19 19 19 18 16 15 15 14 13 12 11 10 9 8 7 7 7 7 8 9 10 11 12 13 15 16 16 16 17 17 16 15 14 16 19 22 22 22 22 23 24 24 24 24 24 24 24 23 23 23 23 23 23 23 23 24 25 25 24 25 25 25 25 25 25 23 18 15 14 14 14 14 15 15 16 16 16 16 16 14 12 11
20 20 19 19 19 18 17 17 15 15 15 14 14 13 11 10 9 8 7 6 6 6 7 8 9 10 11 13 14 15 15 16 16 15 15 16 18 21 21 21 21 22 22 23 23 23 23 23 22 22 22 22 22 22 22 22 23 22 23 24 24 23 23 24 24 24 24 25 25 23 18 15 15 14 13 14 14 15 15 15 14 14 14 14 13
21 21 21 21 20 18 18 17 16 16 17 16 15 14 12 11 11 10 8 7 6 5 5 6 7 8 9 10 12 13 14 14 14 15 16 17 19 20 20 20 20 21 21 21 21 22 21 21 21 21 21 21 21 21 21 21 21 22 22 22 22 22 22 22 22 22 22 22 24 25 22 19 16 15 14 14 13 14 14 14 14 13 13 13 13
22 22 22 22 22 20 19 18 18 18 18 17 16 15 14 13 12 11 10 8 7 6 5 4 5 6 7 7 9 10 12 13 14 15 16 17 18 18 18 19 19 19 19 20 20 20 20 20 20 20 20 20 20 20 20 20 20 20 21 21 20 20 20 21 21 21 21 20 22 23 23 22 20 18 16 14 13 13 14 14 14 13 13 12 12
23 22 22 22 23 22 20 20 20 19 18 17 16 16 16 14 13 12 10 9 8 7 6 4 4 5 4 4 6 8 9 10 11 13 14 15 16 16 17 17 18 18 18 18 18 19 19 19 19 19 19 19 19 19 19 19 20 20 20 20 20 20 20 20 21 21 20 20 20 21 21 21 22 22 19 16 14 14 14 15 14 13 13 13 12
23 22 21 21 23 23 22 22 21 20 19 18 17 17 17 16 14 12 11 10 9 8 7 5 5 4 4 4 5 7 7 6 8 10 12 13 14 14 15 15 16 16 17 17 17 17 17 17 17 17 18 18 18 18 18 18 19 20 20 20 20 20 20 20 20 20 20 20 20 19 19 19 20 22 22 20 18 16 15 15 15 14 13 12 12
24 23 22 22 23 24 24 23 22 21 20 19 18 18 18 17 15 14 13 11 10 9 8 7 6 5 4 4 4 5 6 6 6 7 9 10 11 12 13 13 13 14 15 15 16 16 16 16 16 16 16 16 17 17 17 17 18 19 19 19 19 19 19 19 19 19 19 19 19 19 18 18 19 21 21 21 21 19 17 16 16 15 14 13 12
25 24 23 24 25 25 25 24 23 22 22 21 20 19 19 19 18 16 15 13 12 11 9 8 7 5 4 4 3 4 5 5 5 5 6 8 9 10 10 11 11 12 13 13 14 15 15 16 16 15 15 16 16 16 16 17 17 18 18 18 18 17 18 18 18 18 19 18 18 19 18 17 19 20 20 19 20 20 19 18 17 17 16 15 14
26 25 24 24 25 26 26 25 24 24 24 23 21 21 21 20 19 19 17 16 14 12 11 9 8 6 5 5 4 4 4 5 3 3 4 5 6 7 8 9 9 10 10 12 13 13 14 15 15 15 15 15 15 15 16 16 17 17 17 17 17 16 16 17 17 17 17 17 18 19 19 18 19 20 20 19 20 20 19 19 18 18 18 17 15
27 26 25 24 25 25 25 26 25 25 24 23 22 22 21 21 20 20 19 18 16 14 13 11 9 7 6 5 5 4 4 4 3 2 2 3 3 5 6 7 7 8 9 10 11 11 13 13 13 14 14 15 15 15 15 15 16 16 16 16 16 16 16 17 17 17 17 18 19 19 19 18 19 20 20 20 20 20 19 19 19 18 18 18 17
26 26 25 25 25 25 25 26 26 25 24 23 23 23 22 21 21 21 21 20 18 16 15 13 11 9 8 7 6 5 5 5 4 2 1 1 1 2 3 4 5 6 7 8 9 10 11 12 12 13 13 14 14 14 14 14 15 15 15 16 16 16 17 17 17 17 17 18 19 19 18 18 20 21 20 20 20 20 20 20 19 18 18 18 18
25 26 25 26 26 26 26 26 26 25 25 25 24 24 24 24 23 22 22 21 20 18 16 15 13 11 9 8 8 7 6 6 5 4 2 1 0 1 2 3 4 4 5 6 7 8 9 10 11 11 12 13 13 13 14 14 14 14 14 15 16 16 16 17 16 16 17 18 18 17 18 19 20 20 19 19 20 20 20 20 19 18 18 18 18
26 26 26 26 27 27 27 27 26 26 27 26 25 25 26 26 25 24 24 23 21 19 17 16 15 13 12 10 10 9 8 7 6 5 4 3 2 1 1 1 2 3 4 5 6 6 8 9 9 10 11 11 12 12 13 13 13 13 13 14 14 15 15 15 15 15 17 17 16 16 18 20 19 19 18 19 19 19 20 20 19 18 18 18 18
27 26 26 27 28 28 28 28 28 28 28 27 26 26 26 26 27 27 27 25 22 20 18 17 16 15 14 12 11 11 10 9 8 7 5 5 4 3 2 1 1 2 3 4 5 6 7 7 8 9 10 10 11 11 11 11 12 12 12 12 13 14 14 14 14 15 16 15 15 17 19 19 18 18 18 18 18 19 19 19 19 18 18 18 17
27 26 26 27 28 28 28 28 29 28 27 26 26 26 26 27 28 28 27 25 23 22 20 19 17 16 15 14 13 12 11 10 9 8 7 6 5 4 3 2 2 2 2 3 4 5 5 6 7 8 8 9 9 10 10 10 11 11 11 11 12 13 13 13 14 14 14 14 15 16 17 16 16 17 17 17 18 18 17 18 18 18 18 18 17
26 26 27 26 26 27 29 28 27 27 27 27 27 27 27 26 26 25 25 25 25 23 21 19 18 17 16 14 13 12 11 10 9 8 8 7 7 5 4 3 2 2 2 3 4 4 5 6 6 6 7 8 8 9 9 9 9 9 10 11 11 11 12 13 13 13 13 14 14 15 15 15 15 16 16 16 16 16 16 17 17 18 18 18 17
27 26 26 24 25 26 27 26 26 27 28 27 27 27 26 26 26 26 27 27 26 25 23 22 20 19 17 15 13 12 12 11 10 9 9 8 8 7 5 4 3 2 3 3 4 4 5 6 6 6 6 6 7 7 8 8 8 8 9 9 10 10 11 12 12 13 13 13 13 14 15 15 15 15 15 15 15 15 15 16 17 17 18 18 17
Wind_Direction
47 44 45 47 46 46 45 44 43 41 40 40 40 40 39 36 35 36 34 25 19 20 18 17 21 19 17 29 38 36 31 30 30 27 22 23 30 35 39 44 45 47 55 58 54 50 48 51 56 57 61 70 80 87 96 110 123 127 122 112 107 107 111 115 116 121 126 125 126 121 109 100 104 101 91 82 68 58 47 31 37 44 31 22 27
47 45 46 47 47 47 45 43 42 40 39 40 40 41 40 38 35 36 37 33 25 22 21 19 22 22 27 38 42 38 34 32 32 32 27 25 31 36 40 46 49 48 52 58 59 57 55 56 59 62 65 69 76 87 96 106 114 113 106 96 93 96 101 109 116 124 126 124 121 113 100 98 102 95 84 78 67 54 44 33 35 47 47 33 27
49 46 47 48 48 47 46 43 40 38 38 38 39 41 41 39 36 35 37 37 31 24 22 22 24 26 36 44 44 42 39 35 34 35 33 30 32 36 40 47 52 52 52 57 61 63 64 64 67 72 75 75 80 88 93 99 103 103 98 91 93 102 108 112 116 122 123 119 116 108 99 103 99 87 76 66 60 56 51 44 39 40 43 37 29
51 48 49 49 49 49 47 44 41 38 37 36 37 39 41 40 38 35 35 37 34 26 23 25 27 27 33 43 46 46 43 39 36 37 39 38 36 37 41 47 52 55 58 60 62 64 65 64 67 77 83 83 85 88 90 93 96 99 99 97 99 106 110 111 112 115 113 109 109 106 97 97 92 81 76 69 65 61 51 47 42 39 36 29 24
53 50 50 50 50 50 50 47 43 39 37 36 36 38 39 41 40 36 34 36 33 27 24 26 28 27 29 40 46 47 45 42 39 39 42 43 42 40 42 48 52 54 58 62 64 65 66 64 66 76 83 85 88 90 90 91 91 94 101 102 102 104 106 105 104 103 102 103 106 101 88 83 79 69 67 74 77 63 53 54 46 37 33 28 27
55 52 52 51 51 52 52 50 47 43 39 38 37 37 38 40 42 38 34 34 33 28 26 29 30 29 28 35 43 47 47 44 41 40 42 46 46 44 44 50 55 56 57 61 64 66 67 68 71 77 80 81 85 89 89 89 89 92 98 101 101 100 99 97 97 96 93 94 95 90 82 77 73 70 67 68 68 55 56 65 48 36 35 32 34
58 54 54 53 53 54 54 52 49 46 43 41 39 38 38 40 42 40 35 34 33 29 28 32 32 28 30 38 43 46 47 47 44 41 41 45 49 48 46 49 56 60 60 61 64 68 69 70 73 78 83 83 85 89 90 93 94 95 97 97 94 93 95 95 94 91 86 84 83 80 77 74 70 67 65 64 60 52 56 63 47 40 44 37 35
63 58 56 56 56 56 56 55 52 49 47 45 42 41 39 40 42 41 37 34 33 31 30 32 33 30 33 41 44 43 43 46 46 43 41 45 50 51 49 51 56 61 63 63 65 68 70 71 73 76 82 84 87 90 93 97 100 99 100 96 87 86 92 93 90 85 83 83 82 75 71 72 67 60 61 64 59 53 50 52 43 39 44 37 33
68 62 59 58 58 58 57 56 55 52 50 48 45 43 41 41 42 42 39 36 34 33 32 32 34 34 34 38 41 42 42 43 43 40 38 43 52 53 51 53 57 61 64 65 65 67 69 71 73 75 81 87 90 92 92 94 97 97 97 94 87 86 87 85 84 81 78 76 74 70 65 63 58 54 57 56 52 50 46 43 41 33 29 26 26
72 67 64 61 60 59 58 57 56 54 53 51 48 46 43 43 43 42 41 38 35 33 33 34 36 36 35 38 41 43 44 43 42 40 38 42 53 57 54 55 58 61 64 66 67 68 70 72 75 78 83 87 91 92 89 85 83 83 84 83 82 83 83 79 76 74 70 66 63 61 58 54 49 46 50 48 41 44 42 36 36 29 23 21 14
78 73 69 66 63 61 59 57 56 55 55 53 50 49 46 45 46 44 42 40 37 34 33 35 37 36 37 39 41 43 45 45 43 42 41 43 54 60 58 57 59 61 63 66 69 71 75 78 81 84 85 84 85 87 86 82 76 72 73 71 67 68 70 69 68 66 64 59 53 50 46 42 38 33 35 40 36 37 38 33 34 30 26 31 17
82 77 74 71 67 64 61 59 56 56 56 55 53 52 49 49 48 47 44 42 39 36 34 35 37 36 38 41 44 45 46 46 45 45 44 46 55 62 61 59 61 62 62 64 67 72 77 80 81 84 86 84 84 86 86 84 78 73 72 69 65 62 59 58 59 60 58 52 46 42 35 27 22 18 15 26 36 35 32 30 36 35 26 28 25
88 84 80 75 72 67 63 60 57 56 56 55 55 53 52 52 51 50 48 45 42 40 39 39 40 39 41 44 45 46 45 46 47 48 47 49 57 63 63 61 62 63 63 63 64 67 72 74 73 73 77 82 83 83 83 84 82 82 84 82 76 68 61 56 54 53 51 48 43 36 29 20 15 10 359 3 30 34 32 32 35 38 35 32 29
93 90 86 81 75 70 65 61 58 56 56 55 55 54 53 53 53 52 51 48 46 45 43 44 44 43 44 46 46 46 45 45 47 50 50 53 60 64 63 63 63 64 64 63 61 62 64 66 65 62 62 67 72 75 82 90 92 92 92 88 82 75 68 61 53 48 42 37 37 36 35 30 23 23 19 20 44 44 43 52 43 34 36 32 24
99 96 92 84 79 74 68 63 59 57 57 55 55 55 54 53 54 54 53 51 49 48 47 47 47 46 47 49 49 48 47 47 50 53 53 57 64 65 63 62 63 63 64 64 62 60 60 60 60 58 56 58 65 76 90 98 100 97 90 85 81 75 69 60 50 43 35 34 42 49 50 45 38 40 48 60 78 60 43 43 24 9 19 28 27
105 101 96 89 83 78 71 65 61 59 57 55 55 55 53 53 53 55 55 53 53 53 51 50 50 49 49 51 53 51 49 49 53 57 57 59 67 68 64 62 63 62 62 64 63 61 60 59 60 60 58 60 67 81 94 100 102 99 90 85 82 74 66 56 46 41 38 42 51 54 55 52 44 42 47 51 72 68 44 31 13 2 11 28 34
112 105 100 94 88 83 75 69 64 61 59 57 55 55 54 52 53 55 56 55 54 55 55 53 54 53 52 53 54 53 51 50 53 58 60 61 68 70 66 63 63 61 60 60 60 60 59 57 59 62 63 64 69 81 91 93 92 92 90 88 84 76 69 58 48 48 50 52 56 55 53 52 45 40 39 34 36 45 40 36 24 13 19 26 30
119 111 105 99 93 88 81 74 68 64 61 59 57 55 54 52 52 54 56 56 56 57 57 56 56 56 55 55 56 55 54 52 52 56 59 61 66 70 68 66 65 62 59 57 56 56 55 52 54 59 63 65 69 73 80 83 85 88 90 89 83 75 71 64 55 57 56 52 53 51 47 45 42 38 36 32 30 31 33 47 39 25 29 30 25
125 117 110 104 99 92 85 79 74 69 64 60 58 56 54 52 51 54 56 57 58 59 60 59 58 58 58 57 57 58 57 56 55 55 57 59 62 66 69 70 68 63 58 56 53 52 52 49 47 51 56 60 64 66 67 73 81 86 90 92 87 76 69 63 57 60 59 51 48 46 42 41 40 37 35 35 38 43 50 66 63 41 35 34 26
129 120 113 109 104 95 89 84 78 73 67 62 59 57 56 54 53 55 57 58 59 60 61 61 60 60 60 59 58 58 57 56 56 56 56 57 58 61 64 67 68 63 57 55 53 50 49 46 42 43 48 52 57 63 66 71 79 82 83 84 81 74 69 63 56 57 60 55 49 45 40 38 37 37 36 35 39 45 49 58 64 52 45 45 40
128 121 117 114 108 100 94 88 82 77 71 65 61 59 57 55 55 57 59 58 58 60 61 62 61 59 59 59 58 58 57 55 55 55 55 54 54 56 56 58 62 61 56 54 53 49 47 44 40 38 41 44 48 53 58 64 72 73 69 67 67 68 68 64 59 58 59 57 54 50 43 39 37 36 37 37 37 39 38 40 46 47 47 50 46
128 124 123 120 114 106 99 92 86 81 75 69 65 61 59 57 57 59 61 60 59 59 61 62 61 59 58 57 56 56 56 54 53 53 53 52 51 51 51 51 56 58 56 54 53 49 45 43 39 36 37 39 42 45 49 53 57 58 57 56 60 65 62 56 57 58 53 51 52 50 45 42 39 36 37 39 37 35 36 36 35 37 41 45 45
132 129 129 127 119 111 103 96 89 85 80 75 70 66 64 62 59 60 62 61 60 60 61 61 61 60 59 56 54 53 53 51 50 50 51 49 48 48 48 48 51 54 55 53 52 49 46 44 42 40 38 39 42 42 43 46 49 49 48 48 52 54 50 49 53 53 47 43 46 46 41 39 39 37 39 42 37 34 36 30 26 30 32 34 42
138 135 135 133 125 117 109 100 94 89 84 80 76 72 71 69 67 65 65 64 63 62 62 61 62 62 60 57 54 52 52 50 47 46 47 48 46 45 46 47 50 53 53 52 52 50 47 46 46 45 43 45 48 49 47 47 49 51 50 50 52 50 46 45 45 45 46 45 45 44 37 34 38 40 42 45 42 43 46 29 21 25 23 20 35
142 139 139 138 132 123 115 106 99 94 89 85 81 78 76 75 74 72 70 69 68 66 64 62 62 63 62 60 56 53 52 51 49 46 46 48 47 45 46 48 51 56 58 58 57 56 54 51 51 50 49 50 54 57 57 55 56 58 58 57 56 51 46 46 46 47 51 50 46 42 35 32 37 42 47 50 48 53 61 46 29 31 25 16 31
147 145 146 144 138 129 120 113 106 99 94 90 85 82 79 78 78 77 73 71 70 69 67 65 63 63 63 61 59 56 53 53 52 49 48 50 50 47 47 50 55 61 66 67 66 66 64 60 57 56 55 55 57 58 59 58 55 53 52 50 48 44 40 42 45 47 48 47 44 40 35 34 39 43 49 57 54 53 61 60 44 38 37 31 38
153 152 152 149 144 136 129 122 115 107 102 97 92 88 84 80 80 81 78 75 73 71 70 68 66 65 64 61 59 58 56 55 54 52 51 52 53 50 49 51 57 64 69 71 71 71 68 64 61 60 60 60 60 59 59 58 52 46 46 47 47 46 44 44 45 46 46 47 45 43 40 38 41 44 49 59 62 54 57 65 58 44 38 43 50
157 157 157 153 149 145 139 131 125 119 114 109 105 100 94 87 82 80 79 78 78 75 72 70 68 67 66 64 61 60 58 56 54 53 52 53 53 52 50 51 58 65 69 70 70 69 67 65 63 61 61 61 61 59 59 58 55 51 50 50 50 50 51 54 55 52 51 51 50 50 49 45 43 44 48 60 68 60 55 63 68 56 40 41 49
162 162 161 158 155 151 146 140 135 131 124 117 112 107 101 94 87 81 78 76 76 76 75 73 70 68 67 66 64 61 59 57 53 51 51 52 52 52 50 51 58 66 69 71 70 68 66 65 62 60 60 59 59 59 58 58 58 57 54 52 51 47 46 54 56 50 47 52 53 51 51 48 44 44 49 62 72 67 59 61 66 61 47 37 42
169 167 165 164 161 155 151 148 145 140 133 125 119 113 106 100 93 86 81 76 74 74 74 73 71 68 65 64 62 60 58 57 54 51 50 51 53 54 54 55 60 67 72 74 73 70 68 65 62 60 59 57 56 56 55 54 55 54 52 49 48 44 42 48 52 44 41 48 52 50 50 49 47 47 51 58 66 67 63 63 64 60 51 42 40
177 172 169 169 166 159 157 156 152 147 141 134 128 122 115 109 102 92 85 79 74 72 71 70 69 67 64 62 61 58 57 56 54 52 50 50 53 57 58 58 61 67 71 73 73 71 68 65 63 59 57 56 55 54 52 51 51 51 50 48 46 44 42 42 44 42 37 38 42 48 51 50 48 49 52 54 55 58 62 63 64 62 56 50 48
184 178 175 173 167 161 161 161 157 153 150 144 139 133 126 120 113 102 93 85 77 72 70 68 67 64 62 61 59 57 56 55 54 52 49 48 52 59 62 61 60 63 68 69 69 67 65 63 61 58 56 55 53 52 51 50 48 49 49 47 45 44 41 40 42 42 35 24 25 38 47 49 49 49 52 53 52 53 58 59 59 61 59 56 55
189 184 181 177 170 164 165 164 160 158 158 155 151 146 139 132 122 111 103 93 83 76 70 67 66 64 63 62 60 58 57 56 54 51 47 46 52 61 64 63 59 60 63 65 65 64 63 61 59 57 54 53 51 50 49 48 47 47 47 46 45 43 41 41 42 41 38 30 23 24 32 42 48 48 48 53 53 51 52 53 53 56 58 58 58
194 191 188 182 174 170 168 166 164 163 164 162 160 157 156 150 137 122 110 99 90 81 75 70 68 66 65 64 62 59 57 57 56 52 48 47 52 59 60 59 56 56 58 61 62 62 61 60 59 56 54 52 51 49 47 46 44 44 45 44 43 42 41 40 40 40 39 36 33 27 22 28 41 44 41 45 49 49 48 48 49 52 55 54 57
196 197 194 187 180 176 172 170 169 169 169 168 165 166 169 163 148 133 120 108 97 87 80 75 71 69 68 67 64 61 59 59 58 55 51 50 54 58 59 57 55 54 55 57 58 59 59 58 57 55 53 51 50 48 46 45 42 42 42 41 39 39 40 39 39 41 38 35 35 37 29 20 26 34 34 34 38 42 45 45 44 47 51 49 52
196 197 194 188 185 183 179 176 175 174 173 173 172 174 176 169 158 150 144 133 118 101 88 82 77 73 70 69 68 65 61 59 59 58 55 54 56 59 59 58 55 54 54 56 56 56 56 56 56 54 52 51 49 47 45 44 42 40 41 39 36 35 37 38 37 39 39 36 35 41 43 32 21 20 26 31 33 32 35 38 38 40 45 47 48
196 197 194 188 186 188 186 183 182 181 178 178 179 181 180 175 168 164 159 152 144 128 109 95 85 79 74 72 71 69 65 63 64 63 60 57 57 58 59 59 58 56 55 56 56 56 55 54 54 53 51 49 49 47 45 45 43 41 40 39 35 32 33 37 36 36 38 38 35 38 44 44 30 18 20 26 28 26 26 30 31 31 35 41 44
198 200 198 192 188 189 190 190 189 186 182 181 183 184 185 182 176 171 169 165 158 147 132 115 98 87 78 73 74 75 72 67 64 62 61 59 58 58 58 59 60 59 57 56 56 56 55 53 52 52 50 48 47 46 46 45 44 42 41 39 36 32 32 34 35 34 36 39 37 36 39 40 36 32 27 20 18 20 22 24 25 25 28 30 32
201 204 204 198 192 190 191 195 194 188 184 186 186 186 188 187 182 179 179 174 165 159 152 142 130 116 102 87 81 81 76 65 58 59 61 62 62 61 58 59 61 61 59 58 57 56 55 52 50 50 49 47 46 45 44 44 43 41 40 38 36 34 33 32 33 33 33 36 37 35 35 36 38 39 35 26 20 18 20 23 23 21 22 24 21
203 206 204 199 195 194 196 198 198 192 190 192 191 190 192 190 186 185 186 180 174 171 167 164 163 150 133 111 92 89 86 73 60 61 63 64 65 64 60 58 60 61 60 59 58 57 55 53 50 49 47 46 45 44 43 43 42 40 38 35 33 33 34 33 32 32 33 34 35 33 31 34 39 38 35 35 33 23 16 22 26 21 18 19 15
204 206 203 196 196 198 201 202 201 198 198 198 196 194 195 192 189 190 190 187 185 181 176 180 184 170 150 135 111 103 103 91 68 61 62 63 65 66 63 60 58 59 59 59 58 58 57 54 51 49 47 44 44 44 42 42 43 41 38 36 33 31 32 33 31 31 32 34 35 33 30 33 39 37 34 36 37 29 19 19 23 23 22 20 14
204 207 204 198 197 199 202 204 204 204 205 204 201 199 198 195 193 194 193 192 192 188 185 192 197 182 165 159 143 122 115 105 83 67 64 62 62 65 65 61 58 56 57 58 57 56 55 52 49 48 46 43 42 42 40 39 40 40 38 37 34 31 32 32 30 31 33 33 34 34 31 32 38 36 32 34 37 32 25 21 21 24 26 23 17
207 210 210 204 201 201 203 204 205 207 209 207 205 204 201 198 197 197 197 196 195 192 193 200 204 197 185 179 173 158 137 122 106 82 68 61 58 61 62 62 59 54 52 53 53 52 52 50 46 44 43 42 39 38 38 36 36 36 36 35 34 32 33 33 31 31 33 34 36 35 31 33 37 35 30 31 35 32 27 23 22 23 25 24 19
212 215 214 208 205 204 204 204 206 209 210 210 209 207 204 202 202 202 201 200 199 197 198 205 210 208 202 196 194 185 165 149 144 122 85 65 52 54 57 58 58 55 50 48 47 46 47 47 43 40 40 39 36 35 35 34 33 33 32 32 31 30 31 32 32 31 31 34 37 35 31 32 36 34 28 28 31 29 26 24 22 22 23 23 20
217 218 216 211 207 206 206 207 208 209 210 210 210 208 205 204 206 207 206 205 204 201 200 206 212 212 209 208 207 203 190 180 180 177 141 87 42 44 50 51 54 54 49 45 42 40 41 43 39 36 36 35 33 33 32 31 31 31 29 28 28 28 28 30 30 29 31 34 36 34 32 33 35 32 27 26 27 25 24 24 22 20 20 20 20
219 219 217 214 210 208 209 211 211 211 210 210 210 208 205 203 206 210 211 210 208 205 203 207 211 211 212 213 212 213 212 205 199 200 204 214 257 3 24 37 41 42 43 42 38 34 35 37 35 34 33 32 30 30 29 28 28 28 27 27 26 25 26 28 26 26 31 34 33 33 35 37 35 31 26 25 25 23 22 22 21 19 19 19 18
221 220 219 216 213 212 212 214 214 213 213 211 209 209 207 204 204 209 212 213 211 208 208 210 211 210 211 214 214 215 220 220 214 212 217 225 241 272 327 11 22 23 28 32 29 27 27 29 29 30 30 28 28 27 26 25 26 25 25 27 27 25 26 27 25 26 31 31 29 32 37 37 34 30 26 25 24 22 20 20 21 21 21 20 16
222 222 221 219 217 217 217 216 215 216 216 214 212 212 212 209 207 209 212 212 211 211 212 213 213 210 211 214 215 216 220 224 223 220 222 228 239 255 278 311 342 354 4 12 17 20 19 19 21 24 24 24 25 25 24 23 24 24 24 26 27 26 26 25 26 29 31 28 28 34 38 35 30 28 27 25 23 21 19 18 20 22 22 19 16
223 223 223 222 221 220 220 220 218 217 217 217 216 217 216 215 214 214 212 211 211 212 214 216 216 215 215 216 216 216 217 222 225 225 226 231 237 245 254 266 291 321 337 351 2 6 6 8 13 18 18 19 21 21 21 22 22 21 23 26 26 25 26 26 26 28 29 27 29 36 38 34 28 27 26 25 23 21 19 17 19 23 23 19 16
224 224 226 226 224 224 224 224 221 219 218 219 220 221 221 220 219 217 215 213 212 212 213 215 218 220 221 222 220 217 216 218 221 224 228 232 237 241 245 252 267 291 315 332 343 348 352 357 3 8 12 16 16 16 19 21 20 19 23 26 25 24 25 26 26 26 27 27 30 35 37 34 29 27 26 24 23 21 19 18 21 25 26 22 18
227 226 226 226 227 228 228 226 223 221 220 220 222 223 223 222 219 216 215 215 213 211 212 215 219 223 225 226 224 220 217 216 218 222 226 231 237 241 243 247 257 275 295 312 324 334 341 345 350 357 6 10 10 13 17 18 17 19 24 25 24 25 26 25 24 24 24 25 28 34 35 31 28 27 26 25 23 21 21 21 24 28 28 25 21